Tracking 31027 objects as of 19-Jul-2025
HD Live streaming from Space Station
objects crossing your sky now

STARLINK-3060

Track STARLINK-3060 now!
10-day predictions
STARLINK-3060 is classified as:


NORAD ID: 49155
Int'l Code: 2021-082AB
Perigee: 577.1 km
Apogee: 581.2 km
Inclination: 70.0 °
Period: 96.1 minutes
Semi major axis: 6950 km
RCS: Unknown
Launch date: September 14, 2021
Source: United States (US)
Launch site: AIR FORCE WESTERN TEST RANGE (AFWTR)
Your satellite tracking list
FLOCK 4V 13
Track 1 satellite(s)




NASA's NSSDC Master Catalog

Two Line Element Set (TLE):
1 49155U 21082AB  25199.23578806 -.00000038  00000-0  45795-5 0  9999
2 49155  70.0006 125.5899 0002953 265.4767  94.6055 14.98333152212928
Source of the keplerian elements: AFSPC